Location: Norton
(51.3000°N, 0.8167°E)
Time: 02:55:06
(UTC+00:00)

Cosmos 2242 Rocket - Pass Details

Date: 03 March 2021
Orbit: 617 x 652 km, 82.5° (Epoch: 13 April)

Event Time Altitude Azimuth Distance (km) Brightness Sun altitude
Rises 19:04:03 0° 350° (N) 2,966 7.3 -13.7°
Reaches altitude 10° 19:06:20 10° 351° (N) 2,046 6.4 -14.1°
Maximum altitude 19:10:52 80° 78° (ENE) 652 3.5 -14.8°
Drops below altitude 10° 19:15:20 10° 167° (SSE) 2,007 6.0 -15.5°
Sets 19:17:33 0° 168° (SSE) 2,904 6.8 -15.8°
